Location: Unspecified
(0.0000°N, 0.0000°E)
Time: 18:30:17
(UTC+00:00)

Envisat - Pass Details

Date: 13 May 2021
Orbit: 764 x 766 km, 98.1° (Epoch: 14 May)

Event Time Altitude Azimuth Distance (km) Brightness Sun altitude
Rises 04:31:28 0° 29° (NNE) 3,214 7.0 -20.1°
Reaches altitude 10° 04:33:57 10° 38° (NE) 2,292 6.3 -19.5°
Maximum altitude 04:38:30 34° 102° (ESE) 1,234 4.6 -18.4°
Drops below altitude 10° 04:43:03 10° 167° (SSE) 2,301 5.4 -17.4°
Sets 04:45:32 0° 175° (S) 3,230 6.1 -16.8°
